Time,TemperatureF,DewpointF,PressureIn,WindDirection,WindDirectionDegrees,WindSpeedMPH,WindSpeedGustMPH,Humidity,HourlyPrecipIn,Conditions,Clouds,dailyrainin,SolarRadiationWatts/m^2,SoftwareType,DateUTC
2013-08-20 00:08:00,60.8,58.0,29.95,ESE,107,0.0,0.0,90,0.00,,,0.00,0,weatherlink.com 1.10,2013-08-20 04:08:00,
2013-08-20 00:23:00,60.4,58.0,29.96,ESE,107,0.0,0.0,91,0.00,,,0.00,0,weatherlink.com 1.10,2013-08-20 04:23:00,
2013-08-20 00:38:00,60.0,58.0,29.96,ESE,107,0.0,0.0,92,0.00,,,0.00,0,weatherlink.com 1.10,2013-08-20 04:38:00,
2013-08-20 00:53:00,59.8,58.0,29.96,ESE,107,0.0,0.0,92,0.00,,,0.00,0,weatherlink.com 1.10,2013-08-20 04:53:00,
2013-08-20 01:08:00,59.4,57.0,29.96,ESE,107,0.0,0.0,92,0.00,,,0.00,0,weatherlink.com 1.10,2013-08-20 05:08:00,
2013-08-20 01:23:00,59.3,57.0,29.96,ESE,107,0.0,0.0,93,0.00,,,0.00,0,weatherlink.com 1.10,2013-08-20 05:23:00,
2013-08-20 01:38:00,58.8,57.0,29.96,ESE,107,0.0,0.0,93,0.00,,,0.00,0,weatherlink.com 1.10,2013-08-20 05:38:00,
2013-08-20 01:53:00,58.4,56.0,29.96,ESE,107,0.0,0.0,93,0.00,,,0.00,0,weatherlink.com 1.10,2013-08-20 05:53:00,
2013-08-20 02:08:00,58.6,57.0,29.96,ESE,107,0.0,0.0,94,0.00,,,0.00,0,weatherlink.com 1.10,2013-08-20 06:08:00,
2013-08-20 02:23:00,58.3,56.0,29.96,ESE,107,0.0,0.0,93,0.00,,,0.00,0,weatherlink.com 1.10,2013-08-20 06:23:00,
2013-08-20 02:38:00,58.1,56.0,29.96,ESE,107,0.0,0.0,94,0.00,,,0.00,0,weatherlink.com 1.10,2013-08-20 06:38:00,
2013-08-20 02:53:00,58.0,56.0,29.96,SE,144,0.0,1.0,94,0.00,,,0.00,0,weatherlink.com 1.10,2013-08-20 06:53:00,
2013-08-20 03:08:00,58.1,56.0,29.97,SE,144,0.0,3.0,94,0.00,,,0.00,0,weatherlink.com 1.10,2013-08-20 07:08:00,
2013-08-20 03:23:00,58.0,56.0,29.97,SE,144,0.0,1.0,94,0.00,,,0.00,0,weatherlink.com 1.10,2013-08-20 07:23:00,
2013-08-20 03:38:00,57.8,56.0,29.96,SE,144,0.0,0.0,93,0.00,,,0.00,0,weatherlink.com 1.10,2013-08-20 07:38:00,
2013-08-20 03:53:00,57.7,56.0,29.96,SE,144,0.0,1.0,94,0.00,,,0.00,0,weatherlink.com 1.10,2013-08-20 07:53:00,
2013-08-20 04:08:00,57.5,56.0,29.97,SE,144,0.0,0.0,94,0.00,,,0.00,0,weatherlink.com 1.10,2013-08-20 08:08:00,
2013-08-20 04:23:00,57.2,56.0,29.97,SSE,161,0.0,1.0,94,0.00,,,0.00,0,weatherlink.com 1.10,2013-08-20 08:23:00,
2013-08-20 04:38:00,56.8,55.0,29.97,SSE,161,0.0,0.0,94,0.00,,,0.00,0,weatherlink.com 1.10,2013-08-20 08:38:00,
2013-08-20 04:53:00,56.4,55.0,29.97,SSE,161,0.0,0.0,94,0.00,,,0.00,0,weatherlink.com 1.10,2013-08-20 08:53:00,
2013-08-20 05:08:00,56.1,54.0,29.98,SSE,161,0.0,0.0,94,0.00,,,0.00,0,weatherlink.com 1.10,2013-08-20 09:08:00,
2013-08-20 05:23:00,56.1,55.0,29.98,SSE,161,0.0,0.0,95,0.00,,,0.00,0,weatherlink.com 1.10,2013-08-20 09:23:00,
2013-08-20 05:38:00,56.2,55.0,29.98,SSE,161,0.0,0.0,95,0.00,,,0.00,0,weatherlink.com 1.10,2013-08-20 09:38:00,
2013-08-20 05:53:00,56.7,55.0,29.98,SE,127,0.0,0.0,95,0.00,,,0.00,0,weatherlink.com 1.10,2013-08-20 09:53:00,
2013-08-20 06:08:00,56.8,55.0,29.98,SE,127,0.0,0.0,95,0.00,,,0.00,5,weatherlink.com 1.10,2013-08-20 10:08:00,
2013-08-20 06:23:00,56.9,56.0,29.98,SE,127,0.0,0.0,95,0.00,,,0.00,19,weatherlink.com 1.10,2013-08-20 10:23:00,
2013-08-20 06:38:00,57.2,56.0,29.99,SE,127,0.0,0.0,95,0.00,,,0.00,33,weatherlink.com 1.10,2013-08-20 10:38:00,
2013-08-20 06:53:00,58.1,57.0,30.00,SE,127,0.0,0.0,95,0.00,,,0.00,40,weatherlink.com 1.10,2013-08-20 10:53:00,
2013-08-20 07:08:00,56.8,55.0,30.00,SE,127,0.0,0.0,93,0.00,,,0.00,49,weatherlink.com 1.10,2013-08-20 11:08:00,
2013-08-20 07:24:00,57.8,56.0,30.00,SE,127,0.0,0.0,94,0.00,,,0.00,74,weatherlink.com 1.10,2013-08-20 11:24:00,
2013-08-20 07:39:00,59.7,58.0,30.00,ESE,116,0.0,3.0,94,0.00,,,0.00,109,weatherlink.com 1.10,2013-08-20 11:39:00,
2013-08-20 07:54:00,61.3,59.0,30.01,ESE,116,1.0,3.0,93,0.00,,,0.00,98,weatherlink.com 1.10,2013-08-20 11:54:00,
2013-08-20 08:09:00,62.7,60.0,30.01,ESE,115,0.0,3.0,90,0.00,,,0.00,127,weatherlink.com 1.10,2013-08-20 12:09:00,
2013-08-20 08:24:00,64.3,61.0,30.02,SE,130,0.0,2.0,88,0.00,,,0.00,107,weatherlink.com 1.10,2013-08-20 12:24:00,
2013-08-20 08:39:00,65.7,62.0,30.02,ENE,78,1.0,5.0,86,0.00,,,0.00,111,weatherlink.com 1.10,2013-08-20 12:39:00,
2013-08-20 08:54:00,67.2,62.0,30.01,East,90,2.0,3.0,83,0.00,,,0.00,134,weatherlink.com 1.10,2013-08-20 12:54:00,
2013-08-20 09:09:00,68.1,62.0,30.02,East,90,0.0,5.0,81,0.00,,,0.00,162,weatherlink.com 1.10,2013-08-20 13:09:00,
2013-08-20 09:24:00,68.9,61.0,30.02,SE,128,0.0,3.0,77,0.00,,,0.00,195,weatherlink.com 1.10,2013-08-20 13:24:00,
2013-08-20 09:39:00,69.5,61.0,30.02,East,84,1.0,5.0,74,0.00,,,0.00,160,weatherlink.com 1.10,2013-08-20 13:39:00,
2013-08-20 09:54:00,70.5,62.0,30.02,ESE,123,0.0,5.0,75,0.00,,,0.00,197,weatherlink.com 1.10,2013-08-20 13:54:00,
2013-08-20 10:09:00,70.6,61.0,30.01,ESE,108,2.0,3.0,72,0.00,,,0.00,251,weatherlink.com 1.10,2013-08-20 14:09:00,
2013-08-20 10:24:00,71.2,61.0,30.01,SW,226,0.0,3.0,69,0.00,,,0.00,207,weatherlink.com 1.10,2013-08-20 14:24:00,
2013-08-20 10:39:00,73.4,62.0,30.01,SSE,155,0.0,3.0,68,0.00,,,0.00,524,weatherlink.com 1.10,2013-08-20 14:39:00,
2013-08-20 10:54:00,75.5,62.0,30.02,NW,324,0.0,3.0,63,0.00,,,0.00,670,weatherlink.com 1.10,2013-08-20 14:54:00,
2013-08-20 11:09:00,75.6,61.0,30.02,SSE,157,0.0,4.0,61,0.00,,,0.00,237,weatherlink.com 1.10,2013-08-20 15:09:00,
2013-08-20 11:24:00,75.6,62.0,30.02,WNW,300,2.0,3.0,62,0.00,,,0.00,568,weatherlink.com 1.10,2013-08-20 15:24:00,
2013-08-20 11:39:00,75.6,61.0,30.02,West,261,1.0,4.0,60,0.00,,,0.00,596,weatherlink.com 1.10,2013-08-20 15:39:00,
2013-08-20 11:54:00,75.3,60.0,30.02,SE,130,0.0,7.0,60,0.00,,,0.00,624,weatherlink.com 1.10,2013-08-20 15:54:00,
2013-08-20 12:09:00,76.1,62.0,30.01,West,272,0.0,4.0,61,0.00,,,0.00,647,weatherlink.com 1.10,2013-08-20 16:09:00,
2013-08-20 12:24:00,77.4,62.0,30.01,East,86,0.0,3.0,59,0.00,,,0.00,680,weatherlink.com 1.10,2013-08-20 16:24:00,
2013-08-20 12:39:00,78.2,61.0,30.01,NW,315,1.0,5.0,56,0.00,,,0.00,701,weatherlink.com 1.10,2013-08-20 16:39:00,
2013-08-20 12:55:00,78.4,62.0,30.01,ENE,63,0.0,3.0,57,0.00,,,0.00,717,weatherlink.com 1.10,2013-08-20 16:55:00,
2013-08-20 13:10:00,79.0,61.0,30.01,NE,35,0.0,4.0,55,0.00,,,0.00,740,weatherlink.com 1.10,2013-08-20 17:10:00,
2013-08-20 13:25:00,79.4,61.0,30.01,SE,145,0.0,3.0,53,0.00,,,0.00,791,weatherlink.com 1.10,2013-08-20 17:25:00,
2013-08-20 13:40:00,79.2,62.0,30.01,ENE,74,0.0,3.0,55,0.00,,,0.00,137,weatherlink.com 1.10,2013-08-20 17:40:00,
2013-08-20 13:55:00,78.8,62.0,30.02,SSE,167,1.0,3.0,57,0.00,,,0.00,220,weatherlink.com 1.10,2013-08-20 17:55:00,
2013-08-20 14:10:00,78.2,61.0,30.01,NW,316,1.0,3.0,55,0.00,,,0.00,805,weatherlink.com 1.10,2013-08-20 18:10:00,
2013-08-20 14:25:00,77.9,62.0,30.01,NNW,329,4.0,6.0,58,0.00,,,0.00,422,weatherlink.com 1.10,2013-08-20 18:25:00,
2013-08-20 14:40:00,77.6,62.0,30.01,North,350,3.0,4.0,59,0.00,,,0.00,824,weatherlink.com 1.10,2013-08-20 18:40:00,
2013-08-20 14:55:00,78.8,62.0,30.00,NW,308,0.0,3.0,57,0.00,,,0.00,163,weatherlink.com 1.10,2013-08-20 18:55:00,
2013-08-20 15:10:00,78.4,63.0,30.00,NW,317,0.0,3.0,59,0.00,,,0.00,279,weatherlink.com 1.10,2013-08-20 19:10:00,
2013-08-20 15:25:00,78.4,61.0,30.00,NNW,348,3.0,4.0,56,0.00,,,0.00,306,weatherlink.com 1.10,2013-08-20 19:25:00,
2013-08-20 15:40:00,78.6,63.0,30.00,West,268,0.0,3.0,59,0.00,,,0.00,229,weatherlink.com 1.10,2013-08-20 19:40:00,
2013-08-20 15:55:00,78.6,63.0,30.00,SSW,207,0.0,3.0,59,0.00,,,0.00,236,weatherlink.com 1.10,2013-08-20 19:55:00,
2013-08-20 16:10:00,78.5,64.0,30.00,NNE,21,0.0,5.0,61,0.00,,,0.00,246,weatherlink.com 1.10,2013-08-20 20:10:00,
2013-08-20 16:25:00,78.5,64.0,30.00,ENE,74,0.0,3.0,62,0.00,,,0.00,253,weatherlink.com 1.10,2013-08-20 20:25:00,
2013-08-20 16:40:00,78.3,64.0,29.99,NNW,332,1.0,2.0,62,0.00,,,0.00,127,weatherlink.com 1.10,2013-08-20 20:40:00,
2013-08-20 16:55:00,77.7,63.0,29.99,ENE,62,0.0,5.0,61,0.00,,,0.00,105,weatherlink.com 1.10,2013-08-20 20:55:00,
2013-08-20 17:10:00,77.3,64.0,29.99,NW,322,0.0,1.0,63,0.00,,,0.00,113,weatherlink.com 1.10,2013-08-20 21:10:00,
2013-08-20 17:25:00,76.9,65.0,29.99,SE,125,0.0,1.0,66,0.00,,,0.00,202,weatherlink.com 1.10,2013-08-20 21:25:00,
2013-08-20 17:40:00,76.7,63.0,30.00,NNE,24,0.0,4.0,63,0.00,,,0.00,98,weatherlink.com 1.10,2013-08-20 21:40:00,
2013-08-20 17:55:00,76.6,64.0,30.00,SSW,213,0.0,1.0,65,0.00,,,0.00,69,weatherlink.com 1.10,2013-08-20 21:55:00,
2013-08-20 18:10:00,76.2,64.0,30.00,SSW,213,0.0,0.0,67,0.00,,,0.00,69,weatherlink.com 1.10,2013-08-20 22:10:00,
2013-08-20 18:25:00,75.5,64.0,30.00,SSW,213,0.0,0.0,67,0.00,,,0.00,53,weatherlink.com 1.10,2013-08-20 22:25:00,
2013-08-20 18:40:00,74.8,64.0,30.00,SSW,213,0.0,0.0,70,0.00,,,0.00,58,weatherlink.com 1.10,2013-08-20 22:40:00,
2013-08-20 18:55:00,74.2,64.0,30.00,SSW,213,0.0,0.0,71,0.00,,,0.00,51,weatherlink.com 1.10,2013-08-20 22:55:00,
2013-08-20 19:10:00,73.7,64.0,30.00,SSW,213,0.0,0.0,72,0.00,,,0.00,26,weatherlink.com 1.10,2013-08-20 23:10:00,
2013-08-20 19:25:00,72.9,64.0,30.00,SSW,213,0.0,0.0,73,0.00,,,0.00,16,weatherlink.com 1.10,2013-08-20 23:25:00,
2013-08-20 19:40:00,71.7,63.0,30.01,SSW,213,0.0,0.0,75,0.00,,,0.00,5,weatherlink.com 1.10,2013-08-20 23:40:00,
2013-08-20 19:55:00,70.7,63.0,30.00,SSW,213,0.0,1.0,76,0.00,,,0.00,0,weatherlink.com 1.10,2013-08-20 23:55:00,
2013-08-20 20:10:00,70.0,63.0,30.00,SSW,213,0.0,0.0,78,0.00,,,0.00,0,weatherlink.com 1.10,2013-08-21 00:10:00,
2013-08-20 20:25:00,69.4,63.0,30.01,SSW,213,0.0,0.0,80,0.00,,,0.00,0,weatherlink.com 1.10,2013-08-21 00:25:00,
2013-08-20 20:40:00,69.0,63.0,30.01,SSW,213,0.0,0.0,81,0.00,,,0.00,0,weatherlink.com 1.10,2013-08-21 00:40:00,
2013-08-20 20:55:00,68.3,63.0,30.01,SSW,213,0.0,0.0,83,0.00,,,0.00,0,weatherlink.com 1.10,2013-08-21 00:55:00,
2013-08-20 21:10:00,67.4,63.0,30.02,SSW,213,0.0,0.0,85,0.00,,,0.00,0,weatherlink.com 1.10,2013-08-21 01:10:00,
2013-08-20 21:25:00,66.6,62.0,30.02,SSW,213,0.0,0.0,86,0.00,,,0.00,0,weatherlink.com 1.10,2013-08-21 01:25:00,
2013-08-20 21:40:00,66.0,62.0,30.02,SSW,213,0.0,0.0,87,0.00,,,0.00,0,weatherlink.com 1.10,2013-08-21 01:40:00,
2013-08-20 21:55:00,65.3,61.0,30.02,SSW,213,0.0,0.0,87,0.00,,,0.00,0,weatherlink.com 1.10,2013-08-21 01:55:00,
2013-08-20 22:10:00,64.7,62.0,30.03,SSW,213,0.0,0.0,89,0.00,,,0.00,0,weatherlink.com 1.10,2013-08-21 02:10:00,
2013-08-20 22:25:00,64.3,61.0,30.03,SSW,213,0.0,0.0,89,0.00,,,0.00,0,weatherlink.com 1.10,2013-08-21 02:25:00,
2013-08-20 22:40:00,64.0,61.0,30.03,SSW,213,0.0,0.0,90,0.00,,,0.00,0,weatherlink.com 1.10,2013-08-21 02:40:00,
2013-08-20 22:55:00,63.6,61.0,30.03,SSW,213,0.0,0.0,90,0.00,,,0.00,0,weatherlink.com 1.10,2013-08-21 02:55:00,
2013-08-20 23:10:00,63.2,61.0,30.03,SSW,213,0.0,0.0,91,0.00,,,0.00,0,weatherlink.com 1.10,2013-08-21 03:10:00,
2013-08-20 23:25:00,62.9,60.0,30.03,SSW,213,0.0,0.0,91,0.00,,,0.00,0,weatherlink.com 1.10,2013-08-21 03:25:00,
2013-08-20 23:40:00,62.5,60.0,30.04,SSW,213,0.0,0.0,91,0.00,,,0.00,0,weatherlink.com 1.10,2013-08-21 03:40:00,
2013-08-20 23:55:00,62.1,60.0,30.04,SSW,213,0.0,0.0,92,0.00,,,0.00,0,weatherlink.com 1.10,2013-08-21 03:55:00,